sat.trackr.live / text

‹ back to catalog

GRBBETA

NORAD 60237 · 2024-128C

PAYLOAD ACTIVE UNKNOWN

§ Identity

Operator
Country
SVK
Launch date
2024-07-09
Launch site
FRGUI
Launch vehicle
Mass (kg)
RCS (m²)

Purposes: comms, tech_demo

External: N2YO · Heavens-Above · Gunter

§ Orbital elements

Epoch: 2026-09-19T09:05:15.347904Z

Period
95.54 min
Inclination
61.9884°
Eccentricity
0.0026821
Mean motion
15.07194513 rev/d
Perigee alt
526.2 km
Apogee alt
563.3 km
Semi-major
6,922.9 km
B*
1.5861e-4
RAAN
245.6471°
Arg perigee
155.3628°
Mean anomaly
204.8753°
Rev number
12,046

§ Raw data

GRBBETA1 60237U 24128C   26262.37864986  .00002199  00000+0  15861-3 0  99982 60237  61.9884 245.6471 0026821 155.3628 204.8753 15.07194513120462

JSON: /api/v1/satellites/60237 · /tle

For live sub-satellite position, see the globe view (requires WebGL).

§ Visibility from observer

Set your observer location to see the next 7 days of passes ≥ 10°. The values pass through the URL so the page stays shareable.

No JS? Fill the form by hand. The geolocation button needs JavaScript.

§ Radio — SatNOGS DB

ModeDescriptionDownlinkUplink
FSK Mode S - FSK100k - MRC-100 2.405 GHz
CW Mode U - CW 436.785 MHz
GFSK Mode U - GFSK9k6 - AX.25 436.785 MHz
GFSK Mode U/U - GFSK9k6 - Digipeater - AX.25 436.785 MHz 436.785 MHz
GFSK Mode V - GFSK9k6 - AX.25 145.935 MHz
GFSK Mode V/V - GFSK9k6 - Digipeater - AX.25 145.935 MHz 145.935 MHz

6 transmitters · refreshed weekly from db.satnogs.org